Location: Alberta Star Party
(51.6612°N, 112.9089°W)
Time: 18:34:15
(UTC-06:00)

Amateur Radio Satellites - All Passes

Search period start: 28 July 2014 18:04
Search period end: 29 July 2014 18:04
Location: Alberta Star Party, 51.6612°N, 112.9089°W

Satellite Date Start Highest point End Downlink Frequencies (MHz)
Time Altitude Azimuth
RS-15 28 Jul 18:12:00 18:22:22 45° 346° (NNW) 18:32:49 29.354 - 29.394 USB, Beacon 29.352 USB
Uosat F 28 Jul 18:21:07 18:24:14 16° 272° (W) 18:27:23 435.120 FM
SO-67 28 Jul 18:30:15 18:32:12 14° 61° (ENE) 18:34:09 435.3500 MHz FM
AO-7 28 Jul 18:37:00 18:43:31 25° 271° (W) 18:50:05 29.400 - 29.500 MHz
KITSAT 1 28 Jul 18:41:08 18:43:09 11° 265° (W) 18:45:09 435.175 FM
SO-50 28 Jul 18:50:46 18:54:04 19° 12° (NNE) 18:57:24 436.795 FM
OPAL 28 Jul 19:03:27 19:08:01 36° 300° (WNW) 19:12:38 ?
UOSAT-12 28 Jul 19:11:49 19:15:08 18° 350° (N) 19:18:27 437.025 FM, 437.400 FM
Hamsat 28 Jul 19:21:04 19:24:51 32° 265° (W) 19:28:40 145.90 MHz
JAS-2 28 Jul 19:41:11 19:48:35 47° 263° (W) 19:55:29 435.800 - 435.900 CW/SSB, 435.910 FM
STRAND 1 28 Jul 19:46:58 19:51:35 33° 95° (E) 19:56:09 ?
HO-68 28 Jul 19:47:02 19:52:51 28° 50° (NE) 19:58:40 435.675 MHz FM
UKube-1 28 Jul 20:01:09 20:02:40 12° 52° (NE) 20:04:12 145.840 MHz, 145.915 MHz
SO-67 28 Jul 20:01:28 20:04:53 58° 259° (W) 20:08:21 435.3500 MHz FM
RS-15 28 Jul 20:27:08 20:37:37 47° 19° (NNE) 20:48:16 29.354 - 29.394 USB, Beacon 29.352 USB
SO-50 28 Jul 20:31:21 20:35:48 40° 36° (NE) 20:40:20 436.795 FM
Oscar 11 28 Jul 20:45:35 20:47:58 15° 56° (NE) 20:50:21 145.825 FM, Beacon 2401.500 USB
UOSAT-12 28 Jul 20:53:27 20:56:55 20° 14° (NNE) 21:00:23 437.025 FM, 437.400 FM
STRAND 1 28 Jul 21:26:05 21:30:55 43° 295° (WNW) 21:35:42 ?
HO-68 28 Jul 21:32:40 21:39:51 86° 252° (WSW) 21:47:05 435.675 MHz FM
UKube-1 28 Jul 21:33:45 21:38:05 67° 71° (ENE) 21:42:27 145.840 MHz, 145.915 MHz
SO-50 28 Jul 22:11:58 22:16:30 47° 236° (WSW) 22:21:06 436.795 FM
MaSat-1 28 Jul 22:18:21 22:22:28 49° 114° (ESE) 22:27:12 437.345 MHz
Oscar 11 28 Jul 22:19:14 22:23:33 88° 255° (WSW) 22:27:54 145.825 FM, Beacon 2401.500 USB
UOSAT-12 28 Jul 22:33:36 22:38:11 45° 37° (NE) 22:42:43 437.025 FM, 437.400 FM
FUNcube-1 28 Jul 22:40:13 22:44:27 61° 72° (ENE) 22:48:38 145.950 - 145.970 MHz USB
RS-15 28 Jul 22:40:19 22:51:22 88° 49° (NE) 23:02:45 29.354 - 29.394 USB, Beacon 29.352 USB
UKube-1 28 Jul 23:11:54 23:14:46 17° 270° (W) 23:17:38 145.840 MHz, 145.915 MHz
HO-68 28 Jul 23:23:29 23:28:36 21° 273° (W) 23:33:45 435.675 MHz FM
MaSat-1 28 Jul 23:55:57 00:00:03 33° 318° (NW) 00:04:37 437.345 MHz
Oscar 11 28 Jul 23:58:49 00:00:26 12° 274° (W) 00:02:03 145.825 FM, Beacon 2401.500 USB
ISS 29 Jul 00:05:32 00:06:22 11° 137° (SE) 00:07:12 145.800 FM
UOSAT-12 29 Jul 00:13:55 00:18:21 40° 238° (WSW) 00:22:44 437.025 FM, 437.400 FM
FUNcube-1 29 Jul 00:18:23 00:21:15 17° 270° (W) 00:24:07 145.950 - 145.970 MHz USB
Sapphire 29 Jul 00:30:23 00:32:44 13° 103° (ESE) 00:35:06 437.095 MHz 1200 baud AX-25 AFSK
RS-15 29 Jul 00:53:17 01:02:32 33° 253° (WSW) 01:12:04 29.354 - 29.394 USB, Beacon 29.352 USB
PCSat 29 Jul 01:01:25 01:05:42 24° 110° (ESE) 01:10:00 145.825 MHz
Oscar 10/S400 29 Jul 01:35:49 02:09:19 49° 179° (S) 09:45:15 145.825 - 145.975 CW/USB, Beacon 145.810 USB
MaSat-1 29 Jul 01:36:36 01:38:59 13° 342° (NNW) 01:41:28 437.345 MHz
ISS 29 Jul 01:39:14 01:42:25 41° 155° (SSE) 01:45:37 145.800 FM
Sapphire 29 Jul 02:09:49 02:15:11 68° 123° (ESE) 02:20:35 437.095 MHz 1200 baud AX-25 AFSK
Oscar 19 29 Jul 02:28:45 02:33:15 29° 94° (E) 02:37:45 437.125 CW, 437.150 USB
PCSat 29 Jul 02:43:14 02:48:39 72° 310° (NW) 02:54:07 145.825 MHz
AO-Echo 29 Jul 02:45:40 02:49:34 22° 89° (E) 02:53:21 ?
Oscar 16 29 Jul 02:56:52 03:01:55 50° 100° (E) 03:06:56 437.025 USB, Beacon 2401.1428
OPAL 29 Jul 03:07:22 03:11:20 25° 56° (NE) 03:15:21 ?
ISS 29 Jul 03:15:38 03:19:00 89° 191° (S) 03:22:23 145.800 FM
JAS-1B 29 Jul 03:15:39 03:24:17 36° 88° (E) 03:31:52 435.800 - 435.900 CW/SSB
MaSat-1 29 Jul 03:17:22 03:18:37 11° 6° (N) 03:19:53 437.345 MHz
ITAMSAT 1 29 Jul 03:17:54 03:22:42 37° 96° (E) 03:27:28 435.822 SSB
TMSAT-1 29 Jul 03:35:56 03:39:43 20° 89° (E) 03:43:30 436.925 FM
AO-27 29 Jul 03:37:00 03:42:06 53° 100° (E) 03:47:09 436.795 MHz FM
Uribyol 2 29 Jul 03:37:13 03:42:19 55° 101° (E) 03:47:22 436.500 FM
Sapphire 29 Jul 03:54:10 03:59:02 33° 325° (NW) 04:03:57 437.095 MHz 1200 baud AX-25 AFSK
Gurwin Techsat 1B 29 Jul 03:59:40 04:04:38 38° 96° (E) 04:09:34 435.225 FM
Oscar 19 29 Jul 04:07:52 04:12:50 49° 293° (WNW) 04:17:48 437.125 CW, 437.150 USB
AO-Echo 29 Jul 04:23:44 04:28:50 64° 290° (WNW) 04:33:44 ?
PCSat 29 Jul 04:28:38 04:33:00 24° 334° (NNW) 04:37:23 145.825 MHz
Oscar 16 29 Jul 04:36:38 04:41:04 30° 299° (WNW) 04:45:31 437.025 USB, Beacon 2401.1428
AO-7 29 Jul 04:37:32 04:43:44 22° 88° (E) 04:49:52 29.400 - 29.500 MHz
Uosat F 29 Jul 04:43:00 04:46:20 18° 89° (E) 04:49:39 435.120 FM
OPAL 29 Jul 04:45:00 04:49:54 61° 255° (WSW) 04:54:50 ?
ISS 29 Jul 04:52:22 04:55:44 71° 194° (SSW) 04:59:05 145.800 FM
MaSat-1 29 Jul 04:54:16 04:58:01 19° 30° (NNE) 05:01:48 437.345 MHz
ITAMSAT 1 29 Jul 04:57:27 05:02:16 40° 296° (WNW) 05:07:03 435.822 SSB
JAS-1B 29 Jul 05:05:54 05:15:35 73° 293° (WNW) 05:23:59 435.800 - 435.900 CW/SSB
TMSAT-1 29 Jul 05:14:56 05:20:15 75° 288° (WNW) 05:25:32 436.925 FM
AO-27 29 Jul 05:16:57 05:21:23 29° 300° (WNW) 05:25:48 436.795 MHz FM
Uribyol 2 29 Jul 05:17:11 05:21:32 28° 301° (WNW) 05:25:52 436.500 FM
KITSAT 1 29 Jul 05:25:50 05:29:22 14° 97° (E) 05:32:54 435.175 FM
STRAND 1 29 Jul 05:31:40 05:34:50 17° 52° (NE) 05:38:00 ?
Gurwin Techsat 1B 29 Jul 05:39:43 05:44:38 39° 296° (WNW) 05:49:32 435.225 FM
Sapphire 29 Jul 05:40:41 05:44:09 17° 350° (N) 05:47:37 437.095 MHz 1200 baud AX-25 AFSK
Oscar 19 29 Jul 05:49:52 05:51:03 11° 314° (NW) 05:52:14 437.125 CW, 437.150 USB
AO-Echo 29 Jul 06:04:12 06:06:38 14° 311° (NW) 06:09:03 ?
PCSat 29 Jul 06:15:07 06:18:23 16° 359° (N) 06:21:39 145.825 MHz
Uosat F 29 Jul 06:20:42 06:25:45 78° 288° (WNW) 06:30:45 435.120 FM
ISS 29 Jul 06:29:21 06:32:06 23° 214° (SSW) 06:34:51 145.800 FM
AO-7 29 Jul 06:29:23 06:37:48 83° 110° (ESE) 06:46:08 29.400 - 29.500 MHz
MaSat-1 29 Jul 06:31:10 06:36:27 59° 52° (NE) 06:41:36 437.345 MHz
JAS-2 29 Jul 06:46:12 06:50:50 22° 86° (E) 06:55:06 435.800 - 435.900 CW/SSB, 435.910 FM
TMSAT-1 29 Jul 06:56:13 06:59:22 16° 309° (NW) 07:02:30 436.925 FM
JAS-1B 29 Jul 06:56:59 07:04:31 27° 317° (NW) 07:11:29 435.800 - 435.900 CW/SSB
Hamsat 29 Jul 07:00:57 07:04:48 31° 95° (E) 07:08:38 145.90 MHz
STRAND 1 29 Jul 07:08:08 07:13:17 81° 72° (ENE) 07:18:28 ?
KITSAT 1 29 Jul 07:15:11 07:23:01 57° 119° (ESE) 07:30:53 435.175 FM
Sapphire 29 Jul 07:25:56 07:29:42 19° 16° (NNE) 07:33:27 437.095 MHz 1200 baud AX-25 AFSK
Saudisat 1A 29 Jul 07:46:07 07:48:55 17° 113° (ESE) 07:51:44 436.775 MHz
PCSat 29 Jul 07:59:28 08:03:48 23° 25° (NNE) 08:08:06 145.825 MHz
Uosat F 29 Jul 08:00:50 08:03:47 16° 308° (NW) 08:06:44 435.120 FM
MaSat-1 29 Jul 08:08:59 08:13:32 29° 252° (WSW) 08:17:57 437.345 MHz
AO-7 29 Jul 08:22:46 08:29:53 33° 312° (NW) 08:36:58 29.400 - 29.500 MHz
JAS-2 29 Jul 08:30:31 08:36:45 72° 290° (WNW) 08:42:15 435.800 - 435.900 CW/SSB, 435.910 FM
Hamsat 29 Jul 08:36:54 08:40:49 35° 293° (WNW) 08:44:44 145.90 MHz
JAS-1B 29 Jul 08:48:22 08:51:43 12° 342° (NNW) 08:55:01 435.800 - 435.900 CW/SSB
STRAND 1 29 Jul 08:49:43 08:53:07 18° 272° (W) 08:56:33 ?
SO-67 29 Jul 08:53:01 08:56:32 79° 103° (ESE) 09:00:01 435.3500 MHz FM
HO-68 29 Jul 08:56:35 08:59:52 14° 82° (E) 09:03:09 435.675 MHz FM
Sapphire 29 Jul 09:09:21 09:14:33 43° 41° (NE) 09:19:42 437.095 MHz 1200 baud AX-25 AFSK
KITSAT 1 29 Jul 09:10:42 09:18:36 53° 323° (NW) 09:26:32 435.175 FM
Saudisat 1A 29 Jul 09:23:30 09:27:57 86° 313° (NW) 09:32:24 436.775 MHz
PCSat 29 Jul 09:42:45 09:48:12 68° 49° (NE) 09:53:36 145.825 MHz
Oscar 11 29 Jul 10:03:20 10:05:03 12° 86° (E) 10:06:46 145.825 FM, Beacon 2401.500 USB
AO-7 29 Jul 10:16:37 10:20:12 14° 338° (NNW) 10:23:46 29.400 - 29.500 MHz
JAS-2 29 Jul 10:16:49 10:20:41 17° 314° (NW) 10:24:19 435.800 - 435.900 CW/SSB, 435.910 FM
SO-67 29 Jul 10:27:53 10:29:05 11° 302° (WNW) 10:30:16 435.3500 MHz FM
JAS-1B 29 Jul 10:36:23 10:38:02 11° 9° (N) 10:39:42 435.800 - 435.900 CW/SSB
HO-68 29 Jul 10:42:00 10:49:07 62° 103° (ESE) 10:56:10 435.675 MHz FM
UKube-1 29 Jul 10:52:48 10:57:08 57° 102° (ESE) 11:01:24 145.840 MHz, 145.915 MHz
Sapphire 29 Jul 10:52:53 10:58:05 47° 242° (WSW) 11:03:14 437.095 MHz 1200 baud AX-25 AFSK
Saudisat 1A 29 Jul 11:04:28 11:08:08 25° 334° (NNW) 11:11:48 436.775 MHz
KITSAT 1 29 Jul 11:08:55 11:15:55 30° 350° (N) 11:22:54 435.175 FM
PCSat 29 Jul 11:26:46 11:31:12 26° 249° (WSW) 11:35:37 145.825 MHz
Oscar 11 29 Jul 11:37:33 11:41:55 89° 105° (ESE) 11:46:16 145.825 FM, Beacon 2401.500 USB
FUNcube-1 29 Jul 12:00:09 12:04:18 61° 101° (ESE) 12:08:27 145.950 - 145.970 MHz USB
AO-7 29 Jul 12:09:09 12:09:25 10° 6° (N) 12:09:41 29.400 - 29.500 MHz
Oscar 19 29 Jul 12:14:44 12:17:30 15° 51° (NE) 12:20:16 437.125 CW, 437.150 USB
JAS-1B 29 Jul 12:18:32 12:24:48 20° 35° (NE) 12:31:10 435.800 - 435.900 CW/SSB
AO-Echo 29 Jul 12:29:09 12:30:38 11° 47° (NE) 12:32:07 ?
UKube-1 29 Jul 12:29:42 12:33:00 21° 301° (WNW) 12:36:17 145.840 MHz, 145.915 MHz
HO-68 29 Jul 12:30:08 12:36:32 37° 304° (NW) 12:42:54 435.675 MHz FM
SO-50 29 Jul 12:33:43 12:36:21 16° 111° (ESE) 12:39:01 436.795 FM
Oscar 16 29 Jul 12:41:39 12:45:36 23° 57° (ENE) 12:49:35 437.025 USB, Beacon 2401.1428
Saudisat 1A 29 Jul 12:46:28 12:49:10 16° 358° (N) 12:51:51 436.775 MHz
ITAMSAT 1 29 Jul 13:04:04 13:07:38 19° 54° (NE) 13:11:12 435.822 SSB
KITSAT 1 29 Jul 13:06:31 13:13:48 34° 19° (NNE) 13:21:02 435.175 FM
RS-15 29 Jul 13:12:23 13:21:19 30° 105° (ESE) 13:30:07 29.354 - 29.394 USB, Beacon 29.352 USB
Oscar 11 29 Jul 13:15:06 13:17:30 15° 304° (NW) 13:19:54 145.825 FM, Beacon 2401.500 USB
Uribyol 2 29 Jul 13:22:31 13:26:45 26° 58° (ENE) 13:30:59 436.500 FM
AO-27 29 Jul 13:22:34 13:26:47 26° 58° (ENE) 13:31:00 436.795 MHz FM
TMSAT-1 29 Jul 13:26:29 13:28:01 11° 46° (NE) 13:29:32 436.925 FM
FUNcube-1 29 Jul 13:37:27 13:40:20 19° 300° (WNW) 13:43:14 145.950 - 145.970 MHz USB
Gurwin Techsat 1B 29 Jul 13:48:24 13:52:11 20° 55° (NE) 13:55:58 435.225 FM
Oscar 19 29 Jul 13:50:55 13:56:00 71° 71° (ENE) 14:01:08 437.125 CW, 437.150 USB
AO-7 29 Jul 13:53:40 13:58:57 19° 33° (NNE) 14:04:14 29.400 - 29.500 MHz
AO-Echo 29 Jul 14:03:09 14:08:15 49° 67° (ENE) 14:13:21 ?
JAS-1B 29 Jul 14:04:13 14:13:03 50° 59° (ENE) 14:22:25 435.800 - 435.900 CW/SSB
SO-50 29 Jul 14:11:44 14:16:14 87° 130° (SE) 14:20:52 436.795 FM
Oscar 16 29 Jul 14:19:27 14:24:32 68° 257° (WSW) 14:29:41 437.025 USB, Beacon 2401.1428
HO-68 29 Jul 14:19:48 14:22:19 12° 328° (NNW) 14:24:49 435.675 MHz FM
Saudisat 1A 29 Jul 14:26:45 14:30:16 22° 23° (NNE) 14:33:45 436.775 MHz
UOSAT-12 29 Jul 14:31:16 14:34:20 18° 112° (ESE) 14:37:26 437.025 FM, 437.400 FM
ITAMSAT 1 29 Jul 14:41:16 14:46:30 89° 253° (WSW) 14:51:45 435.822 SSB
Uribyol 2 29 Jul 15:00:46 15:05:54 61° 258° (WSW) 15:11:04 436.500 FM
AO-27 29 Jul 15:00:46 15:05:57 63° 258° (WSW) 15:11:09 436.795 MHz FM
TMSAT-1 29 Jul 15:01:42 15:06:47 50° 67° (ENE) 15:11:54 436.925 FM
KITSAT 1 29 Jul 15:02:27 15:10:35 73° 46° (NE) 15:18:39 435.175 FM
RS-15 29 Jul 15:21:10 15:32:15 87° 130° (SE) 15:43:15 29.354 - 29.394 USB, Beacon 29.352 USB
Gurwin Techsat 1B 29 Jul 15:26:13 15:31:33 85° 255° (WSW) 15:36:55 435.225 FM
Oscar 19 29 Jul 15:32:11 15:35:53 20° 271° (W) 15:39:38 437.125 CW, 437.150 USB
AO-7 29 Jul 15:41:59 15:49:57 51° 57° (ENE) 15:57:56 29.400 - 29.500 MHz
AO-Echo 29 Jul 15:42:32 15:47:13 31° 266° (W) 15:51:56 ?
SO-50 29 Jul 15:53:30 15:57:23 27° 334° (NNW) 16:01:20 436.795 FM
JAS-1B 29 Jul 15:54:15 16:03:18 60° 261° (W) 16:13:09 435.800 - 435.900 CW/SSB
Uosat F 29 Jul 16:01:03 16:05:48 43° 65° (ENE) 16:10:33 435.120 FM
Oscar 16 29 Jul 16:03:29 16:04:54 11° 277° (W) 16:06:19 437.025 USB, Beacon 2401.1428
Saudisat 1A 29 Jul 16:06:09 16:10:35 71° 45° (NE) 16:14:59 436.775 MHz
UOSAT-12 29 Jul 16:09:14 16:13:53 87° 312° (NW) 16:18:39 437.025 FM, 437.400 FM
ITAMSAT 1 29 Jul 16:23:44 16:26:46 16° 273° (W) 16:29:49 435.822 SSB
TMSAT-1 29 Jul 16:42:19 16:46:57 30° 266° (W) 16:51:36 436.925 FM
AO-27 29 Jul 16:45:49 16:46:32 10° 278° (W) 16:47:15 436.795 MHz FM
OPAL 29 Jul 16:49:45 16:53:40 22° 94° (E) 16:57:36 ?
KITSAT 1 29 Jul 16:58:20 17:05:31 37° 249° (WSW) 17:12:39 435.175 FM
JAS-2 29 Jul 17:03:08 17:09:07 27° 54° (NE) 17:14:43 435.800 - 435.900 CW/SSB, 435.910 FM
Gurwin Techsat 1B 29 Jul 17:09:21 17:12:21 15° 274° (W) 17:15:21 435.225 FM
AO-7 29 Jul 17:34:44 17:42:48 51° 259° (W) 17:50:56 29.400 - 29.500 MHz
RS-15 29 Jul 17:35:19 17:45:50 48° 339° (NNW) 17:56:24 29.354 - 29.394 USB, Beacon 29.352 USB
SO-50 29 Jul 17:36:24 17:39:25 17° 358° (N) 17:42:28 436.795 FM
Uosat F 29 Jul 17:40:10 17:44:42 33° 264° (W) 17:49:16 435.120 FM
Saudisat 1A 29 Jul 17:46:27 17:49:45 21° 245° (WSW) 17:53:02 436.775 MHz
JAS-1B 29 Jul 17:50:24 17:56:01 17° 285° (WNW) 18:01:54 435.800 - 435.900 CW/SSB
UOSAT-12 29 Jul 17:50:42 17:54:40 26° 335° (NNW) 17:58:42 437.025 FM, 437.400 FM
